www.pogodaiklimat.ru

Погода и климат >> Архив погоды >> Россия >> Якутия >> Нюрба


ПОГОДА в Нюрбе

  • Прогноз погоды в Нюрбе
  • Монитор погоды в Нюрбе
  • Климат города

АРХИВ ПОГОДЫ в Нюрбе

Время (UTC), дата Ветер
(напр.,м/с)
 
Видим.   Явления Облачность Т
(С)
Тd
(С)
f
(%)
Тe
(С)
Тes
(С)
Комфортность P
(гПа)
Po
(гПа)
Тmin
(С)
Tmax
(С)
R
(мм)
S
(см)
09 17.02 ЮЗ 3 10 км слабый снег 10/0
[As op]
-23.7 -27.6 70 -32 -32 опасность
обморожения
1020.4 1003.9
12 17.02 ЮЗ 2 20 км слабый снег 10/0
[As op Cs]
-24.5 -27.7 75 -31 -31 опасность
обморожения
1019.8 1003.2 -23.6 0.4
15 17.02 ЮЗ 3 20 км слабый снег 10/0
[As op]
-23.8 -27.0 75 -32 -32 опасность
обморожения
1017.9 1001.4
18 17.02 ЮЗ 2 20 км слабый снег 10/0
[As op]
-23.7 -26.8 76 -30 -30 1017.2 1000.7
21 17.02 ЮЗ 2 20 км слабый снег 10/0
[As trans Cs]
-28.4 -31.5 75 -36 -36 опасность
обморожения
1016.7 999.9
00 18.02 З 1 20 км {снег} 10/0
[As trans Cs]
-31.8 -35.4 70 -36 -36 опасность
обморожения
1015.4 998.4 -32.4 0.2 31
03 18.02 ЮЗ 2 50 км 10/0
[As trans Cs]
-21.7 -24.9 75 -28 -27 1013.4 997.2
06 18.02 Ю 1 10 км слабый снег 10/0
[As trans Cs]
-17.1 -20.5 75 -20 -19 1012.0 996.0
09 18.02 ЮЗ 2 50 км в посл. час снег 10/0
[As trans Cs]
-17.8 -21.1 75 -23 -23 1011.8 995.8
12 18.02 Ю 1 50 км {снег} 10/0
[As trans Cs]
-19.6 -22.2 80 -23 -23 1012.4 996.3 -16.2 0.0
15 18.02 штиль 0 20 км слабый снег 10/0
[As trans Cs]
-22.8 -25.3 80 -23 -23 1012.3 996.0
18 18.02 штиль 0 20 км слабый снег 10/0
[As trans Cs]
-21.0 -23.5 80 -21 -21 1012.0 995.8
21 18.02 штиль 0 20 км слабый снег 10/0
[As trans Cs]
-22.8 -25.3 80 -23 -23 1011.5 995.2
00 19.02 ЮЗ 1 20 км {снег} 4/0
[Ac trans Ci fib]
-24.2 -27.3 75 -28 -28 1011.5 995.1 -26.7 0.5 31
03 19.02 ЮЗ 2 20 км слабый снег 10/6
[Cu med, cong Cs]
-19.8 -23.1 75 -26 -25 1010.4 994.3
06 19.02 ЮЗ 4 10 км слабый снег 10/0
[As op Cs]
-17.0 -20.4 75 -25 -25 1009.3 993.3
09 19.02 ЮЗ 3 20 км {снег} 5/0
[As trans Cs]
-18.2 -21.5 75 -25 -25 1009.9 993.8
12 19.02 ЮЗ 3 10 км слабый снег 10/0
[As trans Cs]
-17.3 -20.7 75 -24 -24 1009.7 993.7 -16.7 0.2
15 19.02 З 3 10 км слабый снег 10/0
[As op Cs]
-17.9 -20.5 80 -25 -25 1009.7 993.7
18 19.02 З 2 50 км снег 10/0
[As trans Cs]
-22.0 -24.0 84 -28 -28 1011.1 993.9
21 19.02 ЮЗ 1 50 км 10/0
[Cs]
-23.9 -27.1 75 -27 -27 1012.1 995.7
00 20.02 З 1 50 км 10/0
[Cs]
-25.4 -28.5 75 -29 -29 1013.5 997.0 -27.0 0.2 31
03 20.02 ЮЗ 1 50 км 8/0
[Ci fib]
-21.7 -24.9 75 -25 -23 1014.7 998.4
06 20.02 ЮЗ 2 50 км 3/0
[Ci fib]
-18.4 -21.7 75 -24 -23 1015.6 999.5
09 20.02 штиль 0 50 км 3/0
[Ci fib]
-19.8 -23.1 75 -20 -20 1017.0 1000.8
12 20.02 штиль 0 50 км ясно -28.7 -31.8 75 -29 -29 1018.9 1002.1 -16.5
15 20.02 штиль 0 50 км ясно -32.9 -36.4 71 -33 -33 опасность
обморожения
1019.9 1002.7
18 20.02 штиль 0 50 км ясно -36.2 -39.7 70 -36 -36 опасность
обморожения
1021.2 1003.8
21 20.02 штиль 0 50 км ясно -37.7 -41.1 70 -38 -38 опасность
обморожения
1022.3 1004.8
00 21.02 штиль 0 4000 м дымка 4/0
[Ci fib]
-37.6 -41.1 70 -38 -38 опасность
обморожения
1022.7 1005.2 -38.0 31
03 21.02 штиль 0 2000 м дымка 5/0
[Ci fib]
-33.1 -36.7 70 -33 -31 опасность
обморожения
1023.4 1006.2
06 21.02 штиль 0 50 км 4/0
[Ci fib]
-25.8 -30.4 65 -26 -24 1022.9 1006.2
09 21.02 штиль 0 50 км 3/0
[Ci fib]
-26.4 -30.2 70 -26 -26 1023.0 1006.3
12 21.02 штиль 0 50 км ясно -33.5 -37.2 69 -34 -34 опасность
обморожения
1023.7 1006.5 -24.8
15 21.02 штиль 0 50 км ясно -36.9 -40.4 70 -37 -37 опасность
обморожения
1023.8 1006.3
18 21.02 штиль 0 50 км ясно -37.8 -41.1 71 -38 -38 опасность
обморожения
1023.3 1005.8
21 21.02 штиль 0 50 км ясно -38.0 -41.5 69 -38 -38 опасность
обморожения
1023.0 1005.4
00 22.02 штиль 0 10 км слабый снег 10/0
[As op Cs]
-32.6 -36.1 71 -33 -33 опасность
обморожения
1021.8 1004.6 -38.5 0.0 31
03 22.02 В 2 20 км слабый снег 10/0
[As trans Cs]
-29.1 -32.9 70 -36 -35 опасность
обморожения
1020.5 1003.6
06 22.02 штиль 0 10 км слабый снег 10/0
[As op Cs]
-22.0 -26.0 70 -22 -21 1019.2 1002.8
09 22.02 штиль 0 20 км слабый снег 10/0
[As trans Cs]
-21.3 -25.3 70 -21 -21 1018.5 1002.2
12 22.02 штиль 0 10 км слабый снег 10/0
[As trans Cs]
-24.1 -28.1 69 -24 -24 1018.5 1002.0 -19.6 0.7
15 22.02 СВ 2 50 км в посл. час снег 10/0
[As trans Cs]
-25.3 -29.1 70 -32 -32 опасность
обморожения
1017.9 1001.3
18 22.02 СВ 1 50 км {снег} 10/0
[Ci fib]
-28.2 -32.0 70 -32 -32 опасность
обморожения
1017.8 1001.0
21 22.02 СВ 2 50 км 6/0
[Cs]
-31.4 -35.0 70 -39 -39 опасность
обморожения
1018.4 1001.4
00 23.02 СВ 2 50 км 6/0
[Cs]
-33.1 -36.7 70 -41 -41 опасность
обморожения
1019.0 1001.9 -33.3 0.2 32
03 23.02 СВ 2 50 км 4/0
[Ci fib]
-29.2 -32.9 70 -37 -35 опасность
обморожения
1019.4 1002.5
06 23.02 СВ 2 50 км 3/0
[Ci fib]
-22.2 -26.9 66 -28 -27 1019.0 1002.5
09 23.02 СВ 1 50 км 3/0
[Ci fib]
-22.6 -26.6 70 -26 -26 1020.4 1003.9
12 23.02 штиль 0 50 км ясно -29.6 -33.3 70 -30 -30 1021.1 1004.1 -21.1
15 23.02 штиль 0 50 км ясно -34.3 -37.8 70 -34 -34 опасность
обморожения
1021.4 1004.1
18 23.02 штиль 0 50 км ясно -36.0 -39.7 69 -36 -36 опасность
обморожения
1022.2 1004.8
21 23.02 штиль 0 50 км ясно -38.4 -42.0 69 -38 -38 опасность
обморожения
1023.4 1005.8
00 24.02 ЮЗ 1 2000 м дымка ясно -38.2 -41.5 71 -43 -43 опасность
обморожения
1023.4 1005.8 -39.4 32
03 24.02 ЮЗ 1 20 км ясно -30.4 -34.1 70 -35 -32 опасность
обморожения
1022.1 1005.1

 

Местоположение метеостанции Нюрба (Якутия, Россия): широта 63.28 долгота 118.30 высота над уровнем моря 119 м.

В архиве по умолчанию представлена погода в Нюрбе за последнюю неделю. Архивные данные за месяц целиком и за предыдущие месяцы, начиная с января 2011 года, Вы можете получить, выбрав интересующий диапазон дат из раскрывающегося списка и нажав кнопку "Ввод!".

Внимание! Время в таблицах - всемирное. Для получения местного времени необходимо прибавить поправку, которая в Нюрбе равна 9 ч.

Смотрите также архив погоды в соседних городах и на ближайших метеорологических станциях:

Погода в Верхневилюйске (Якутия, Россия) (97 км)
Погода в Чумпуруке (Якутия, Россия) (126 км)
Погода в Сунтаре (Якутия, Россия) (129 км)
Погода в Крестяхе (Якутия, Россия) (159 км)
Погода в Вилюйске (Якутия, Россия) (172 км)
Погода в Мирном (Якутия, Россия) (243 км)
Погода в Килиере (Якутия, Россия) (264 км)
Погода в Дорожном (Якутия, Россия) (265 км)
Погода в Чернышевском (Якутия, Россия) (298 км)
Погода в Эйке (Якутия, Россия) (309 км)

Пояснения к столбцам:

Ветер - указаны скорость ветра в м/с - средняя за 10 мин, порывы в срок и между сроками (в фигурных скобках) и направление, откуда дует ветер: С - северный, СВ - северо-восточный, В - восточный, ЮВ - юго-восточный, Ю - южный, ЮЗ - юго-западный, З - западный, СЗ - северо-западный.
Видимость - горизонтальная дальность видимости в метрах или километрах. При видимости от 1 до 10 км при отсутствии осадков обычно наблюдается дымка, при ухудшении видимости до 1 км и менее - туман. В сухую погоду видимость может ухудшаться дымом, пылью или мглою.
Явления - указаны атмосферные явления, наблюдавшиеся в срок или в последний час перед сроком; фигурными скобками обозначены явления, наблюдавшиеся между сроками (за 1-3 часа до срока); квадратными скобками обозначены град или гололедные отложения с указанием их диаметра в мм.
Облачность - указаны через наклонную черту общая и нижняя облачность в баллах и высота нижней границы облаков в метрах; квадратными скобками обозначены формы облаков: Ci - перистые, Cs - перисто-слоистые, Cc - перисто-кучевые, Ac - высококучевые, As - высокослоистые, Sc - слоисто-кучевые, Ns - слоисто-дождевые, Cu - кучевые, Cb - кучево-дождевые. Подробнее классификацию облаков см. в Атласе облаков (PDF).
T - Температура воздуха - температура, измеренная на высоте 2 м над землей.
Td - Температура точки росы - температура, при понижении до которой содержащийся в воздухе водяной пар достигнет насыщения.
f - Относительная влажность воздуха - влажноcть воздуха, измеренная на высоте 2 м над землей.
Te - Эффективная температура - температура, которую ощущает одетый по сезону человек в тени. Характеристика душности погоды. При расчете учитывается влияние влажности воздуха и скорости ветра на теплоощущения человека.
Tes - Эффективная температура на солнце - температура, которую ощущает человек, с поправкой на солнечный нагрев. Характеристика знойности погоды. Зависит от высоты солнца над горизонтом, облачности и скорости ветра. Ночью, в пасмурную погоду, а также при ветре 12 м/с и более поправка равна нулю.
P - Атмосферное давление - приведенное к уровню моря атмосферное давление.
Po - Атмосферное давление - измеренное на уровне метеостанции атмосферное давление.
Tmin - Минимальная температура - минимум температуры воздуха на высоте 2 м над землей.
Tmax - Максимальная температура - максимум температуры воздуха на высоте 2 м над землей.
R - Количество осадков - Количество выпавших осадков, мм. При наведении курсора мыши на число - период времени, за который выпало указанное количество осадков.
S - Снежный покров - Высота снежного покрова, см. При наведении курсора мыши на число - состояние снежного покрова и степень покрытия местности в баллах.